FENGYUN 1C DEB, 36218

Orbit data source: Space-Track

FENGYUN 1C DEB, 36218 is space debris in SSO originally from a launch on Mon, 10 May 1999 UTC launched from the Taiyaun Space Center, China (TSC). Fengyun 1C debris stems from the Chinese weather satellite Fengyun-1C, which was intentionally destroyed by a Chinese anti-satellite missile in 2007. This event dramatically increased the amount of space debris, with thousands of trackable fragments posing hazards to satellites and human spaceflight. The Fengyun 1C debris cloud has become a focal point in discussions about space sustainability and the need for international regulations to prevent the creation of new debris.

Loading next visibility...
Identifier
36218, 1999-025DUT
Orbit
SSO
Country
Flag of CNCN / PRC
Related business
Manufacturer
Unknown
Mission
Spacecraft
Bus & Motor
Unknown
Mass
Unknown
Launch date (UTC)
1999-05-10 (27 years ago)
Launch vehicle
Unknown
Launch site
Taiyaun Space Center, China (TSC)
Object type
Payload
Rocket body
Debris
Shape & HBR
Unknown shape, 0.1 m
Radar Cross Section
Small (<0.1 m²)

Expand to show TLE details & history
Last TLE update: 2 days ago

TLE from 2 days ago
0 FENGYUN 1C DEB
1 36218U 99025DUT 26119.87116433  .00004951  00000-0  75370-3 0  9991
2 36218  99.0684 341.7790 0069385 226.1812 133.3643 14.72879213611759
Epoch: 2026-04-29T20:54Z
TLE epoch observation values (Epoch: 2026-04-29T20:54:28.598Z)
Latitude
Longitude
170.33393°
Altitude
688.543 km
Speed
7.494 km/s
True Right ascension
22h 47m 06s
True Declination
0° 00' 00"
Sunlit
Object was in daylight at epoch
Visualization orbit readout
Latitude
Unknown
Longitude
Unknown
Altitude
Unknown
Speed
Unknown
Apparent Right ascension
Unknown
Apparent Declination
Unknown
Sunlit
N/A
Visualization observer readout
Local Sidereal Time
03:50:48
Azimuth
Unknown
Elevation
Unknown
Doppler factor
Unknown
Orbital elements
Apogee altitude
697.755 km
Perigee altitude
600.24 km
Semi-major axis
7,027.135 km
Eccentricity
0.00694
Inclination
99.0684°
RAAN
341.779°
Arg. of periapsis
226.1812°
True anomaly
133.9389°
Mean anomaly
133.3643°
Eccentric anomaly
133.65194°
Mean motion
3.68448 °/min
Orbital period
97.71 mins
BSTAR
0.0007537
Loading maneuver chart data...
Computing Atmospheric mass density...

Documentation

Showing up to 5 results
|